Time,TemperatureF,DewpointF,PressureIn,WindDirection,WindDirectionDegrees,WindSpeedMPH,WindSpeedGustMPH,Humidity,HourlyPrecipIn,Conditions,Clouds,dailyrainin,SoftwareType,DateUTC
2013-04-02 00:00:00,68.7,64.9,30.01,West,270,2.0,3.0,88,0.00,,,0.00,meteohub,2013-04-02 04:00:00,
2013-04-02 00:02:00,68.5,65.1,30.01,West,270,2.0,3.0,89,0.00,,,0.00,meteohub,2013-04-02 04:02:00,
2013-04-02 00:04:00,68.5,65.1,30.01,West,270,2.0,3.0,89,0.00,,,0.00,meteohub,2013-04-02 04:04:00,
2013-04-02 00:09:00,68.5,65.1,30.01,WSW,248,4.0,4.0,89,0.00,,,0.00,meteohub,2013-04-02 04:09:00,
2013-04-02 00:14:00,68.4,65.3,30.01,West,270,4.0,4.0,90,0.00,,,0.00,meteohub,2013-04-02 04:14:00,
2013-04-02 00:19:00,68.4,65.3,30.01,SW,225,3.0,4.0,90,0.00,,,0.00,meteohub,2013-04-02 04:19:00,
2013-04-02 00:24:00,68.2,65.5,30.00,SW,225,4.0,4.0,91,0.00,,,0.00,meteohub,2013-04-02 04:24:00,
2013-04-02 00:29:00,68.2,65.5,30.01,West,270,2.0,4.0,91,0.00,,,0.00,meteohub,2013-04-02 04:29:00,
2013-04-02 00:34:00,68.0,65.3,30.01,West,270,2.0,4.0,91,0.00,,,0.00,meteohub,2013-04-02 04:34:00,
2013-04-02 00:39:00,67.8,65.7,30.01,West,270,2.0,4.0,93,0.00,,,0.00,meteohub,2013-04-02 04:39:00,
2013-04-02 00:45:00,67.8,65.7,30.01,West,270,3.0,4.0,93,0.00,,,0.00,meteohub,2013-04-02 04:45:00,
2013-04-02 00:50:00,67.6,65.8,30.01,West,270,2.0,4.0,94,0.00,,,0.00,meteohub,2013-04-02 04:50:00,
2013-04-02 00:55:00,67.5,65.3,30.01,West,270,2.0,3.0,93,0.00,,,0.00,meteohub,2013-04-02 04:55:00,
2013-04-02 01:00:00,67.3,65.1,30.01,South,180,0.0,3.0,93,0.00,,,0.00,meteohub,2013-04-02 05:00:00,
2013-04-02 01:05:00,67.1,65.3,30.01,West,270,3.0,3.0,94,0.00,,,0.00,meteohub,2013-04-02 05:05:00,
2013-04-02 01:11:00,66.9,65.1,30.01,SW,225,0.0,3.0,94,0.00,,,0.00,meteohub,2013-04-02 05:11:00,
2013-04-02 01:16:00,66.7,64.9,30.01,West,270,1.0,3.0,94,0.00,,,0.00,meteohub,2013-04-02 05:16:00,
2013-04-02 01:21:00,66.7,64.9,30.01,SW,225,2.0,3.0,94,0.00,,,0.00,meteohub,2013-04-02 05:21:00,
2013-04-02 01:26:00,66.6,64.8,30.01,West,270,0.0,2.0,94,0.00,,,0.00,meteohub,2013-04-02 05:26:00,
2013-04-02 01:31:00,66.4,64.6,30.01,SW,225,0.0,2.0,94,0.00,,,0.00,meteohub,2013-04-02 05:31:00,
2013-04-02 01:36:00,66.2,64.4,30.01,North,0,1.0,2.0,94,0.00,,,0.00,meteohub,2013-04-02 05:36:00,
2013-04-02 01:42:00,66.0,64.6,30.01,SW,225,0.0,2.0,95,0.00,,,0.00,meteohub,2013-04-02 05:42:00,
2013-04-02 01:47:00,65.8,64.6,30.01,North,0,0.0,1.0,96,0.00,,,0.00,meteohub,2013-04-02 05:47:00,
2013-04-02 01:52:00,65.8,64.6,30.01,SW,225,1.0,1.0,96,0.00,,,0.00,meteohub,2013-04-02 05:52:00,
2013-04-02 01:57:00,65.7,64.4,30.01,SW,225,0.0,2.0,96,0.00,,,0.00,meteohub,2013-04-02 05:57:00,
2013-04-02 02:02:00,65.7,64.4,30.01,SW,225,2.0,2.0,96,0.00,,,0.00,meteohub,2013-04-02 06:02:00,
2013-04-02 02:07:00,65.7,64.4,30.01,SW,225,2.0,3.0,96,0.00,,,0.00,meteohub,2013-04-02 06:07:00,
2013-04-02 02:12:00,65.7,64.8,30.01,West,270,3.0,3.0,97,0.00,,,0.00,meteohub,2013-04-02 06:12:00,
2013-04-02 02:17:00,65.7,64.8,30.01,West,270,2.0,3.0,97,0.00,,,0.00,meteohub,2013-04-02 06:17:00,
2013-04-02 02:22:00,65.7,64.8,30.01,NW,315,2.0,3.0,97,0.00,,,0.00,meteohub,2013-04-02 06:22:00,
2013-04-02 02:27:00,65.7,64.8,30.01,NW,315,2.0,4.0,97,0.00,,,0.00,meteohub,2013-04-02 06:27:00,
2013-04-02 02:32:00,65.7,64.4,30.01,West,270,1.0,4.0,96,0.00,,,0.00,meteohub,2013-04-02 06:32:00,
2013-04-02 02:37:00,65.5,64.2,30.01,West,270,0.0,4.0,96,0.00,,,0.00,meteohub,2013-04-02 06:37:00,
2013-04-02 02:42:00,65.3,64.0,30.00,West,270,2.0,2.0,96,0.00,,,0.00,meteohub,2013-04-02 06:42:00,
2013-04-02 02:47:00,65.3,64.0,30.01,SW,225,2.0,2.0,96,0.00,,,0.00,meteohub,2013-04-02 06:47:00,
2013-04-02 02:52:00,65.1,64.0,30.01,SW,225,0.0,2.0,96,0.00,,,0.00,meteohub,2013-04-02 06:52:00,
2013-04-02 02:57:00,64.9,63.9,30.01,West,270,2.0,2.0,96,0.00,,,0.00,meteohub,2013-04-02 06:57:00,
2013-04-02 03:02:00,64.8,63.7,30.01,West,270,1.0,2.0,96,0.00,,,0.00,meteohub,2013-04-02 07:02:00,
2013-04-02 03:07:00,64.8,63.7,30.01,West,270,0.0,2.0,96,0.00,,,0.00,meteohub,2013-04-02 07:07:00,
2013-04-02 03:12:00,64.6,63.7,30.01,West,270,1.0,2.0,97,0.00,,,0.00,meteohub,2013-04-02 07:12:00,
2013-04-02 03:17:00,64.4,63.5,30.01,SW,225,0.0,2.0,97,0.00,,,0.00,meteohub,2013-04-02 07:17:00,
2013-04-02 03:22:00,64.4,63.5,30.01,West,270,0.0,1.0,97,0.00,,,0.00,meteohub,2013-04-02 07:22:00,
2013-04-02 03:28:00,64.2,63.1,30.01,West,270,1.0,1.0,96,0.00,,,0.00,meteohub,2013-04-02 07:28:00,
2013-04-02 03:33:00,64.0,63.0,30.00,West,270,1.0,3.0,96,0.00,,,0.00,meteohub,2013-04-02 07:33:00,
2013-04-02 03:38:00,63.9,62.8,30.01,West,270,1.0,3.0,96,0.00,,,0.00,meteohub,2013-04-02 07:38:00,
2013-04-02 03:43:00,63.9,62.8,30.01,West,270,0.0,2.0,96,0.00,,,0.00,meteohub,2013-04-02 07:43:00,
2013-04-02 03:48:00,63.7,62.6,30.01,NW,315,0.0,2.0,96,0.00,,,0.00,meteohub,2013-04-02 07:48:00,
2013-04-02 03:53:00,63.5,62.4,30.01,NW,315,0.0,2.0,96,0.00,,,0.00,meteohub,2013-04-02 07:53:00,
2013-04-02 03:59:00,63.3,62.2,30.01,West,270,1.0,1.0,96,0.00,,,0.00,meteohub,2013-04-02 07:59:00,
2013-04-02 04:04:00,63.3,62.4,30.01,West,270,0.0,1.0,97,0.00,,,0.00,meteohub,2013-04-02 08:04:00,
2013-04-02 04:09:00,63.1,62.2,30.01,West,270,0.0,1.0,97,0.00,,,0.00,meteohub,2013-04-02 08:09:00,
2013-04-02 04:14:00,63.1,62.2,30.01,West,270,0.0,1.0,97,0.00,,,0.00,meteohub,2013-04-02 08:14:00,
2013-04-02 04:19:00,63.1,62.2,30.01,West,270,0.0,0.0,97,0.00,,,0.00,meteohub,2013-04-02 08:19:00,
2013-04-02 04:25:00,63.0,62.1,30.01,West,270,0.0,0.0,97,0.00,,,0.00,meteohub,2013-04-02 08:25:00,
2013-04-02 04:30:00,63.0,62.1,30.01,South,180,0.0,0.0,97,0.00,,,0.00,meteohub,2013-04-02 08:30:00,
2013-04-02 04:35:00,62.8,61.9,30.01,North,0,0.0,0.0,97,0.00,,,0.00,meteohub,2013-04-02 08:35:00,
2013-04-02 04:40:00,62.6,61.7,30.01,North,0,0.0,0.0,97,0.00,,,0.00,meteohub,2013-04-02 08:40:00,
2013-04-02 04:45:00,62.6,61.7,30.01,SW,225,0.0,0.0,97,0.00,,,0.00,meteohub,2013-04-02 08:45:00,
2013-04-02 04:50:00,62.8,61.9,30.02,West,270,0.0,0.0,97,0.00,,,0.00,meteohub,2013-04-02 08:50:00,
2013-04-02 04:55:00,62.8,61.9,30.02,West,270,0.0,0.0,97,0.00,,,0.00,meteohub,2013-04-02 08:55:00,
2013-04-02 05:01:00,62.8,61.9,30.02,West,270,0.0,0.0,97,0.00,,,0.00,meteohub,2013-04-02 09:01:00,
2013-04-02 05:06:00,62.8,61.9,30.02,West,270,0.0,0.0,97,0.00,,,0.00,meteohub,2013-04-02 09:06:00,
2013-04-02 05:12:00,62.8,61.9,30.02,West,270,0.0,0.0,97,0.00,,,0.00,meteohub,2013-04-02 09:12:00,
2013-04-02 05:17:00,62.8,61.9,30.02,West,270,0.0,0.0,97,0.00,,,0.00,meteohub,2013-04-02 09:17:00,
2013-04-02 05:22:00,62.8,61.9,30.02,West,270,0.0,0.0,97,0.00,,,0.00,meteohub,2013-04-02 09:22:00,
2013-04-02 05:27:00,62.6,61.7,30.03,West,270,0.0,0.0,97,0.00,,,0.00,meteohub,2013-04-02 09:27:00,
2013-04-02 05:32:00,62.6,61.7,30.02,West,270,0.0,0.0,97,0.00,,,0.00,meteohub,2013-04-02 09:32:00,
2013-04-02 05:37:00,62.4,61.9,30.02,West,270,0.0,0.0,98,0.00,,,0.00,meteohub,2013-04-02 09:37:00,
2013-04-02 05:42:00,62.2,61.7,30.02,West,270,0.0,0.0,98,0.00,,,0.00,meteohub,2013-04-02 09:42:00,
2013-04-02 05:47:00,62.2,61.7,30.02,SW,225,0.0,0.0,98,0.00,,,0.00,meteohub,2013-04-02 09:47:00,
2013-04-02 05:52:00,62.2,61.7,30.02,West,270,0.0,0.0,98,0.00,,,0.00,meteohub,2013-04-02 09:52:00,
2013-04-02 05:57:00,62.2,61.7,30.02,West,270,0.0,0.0,98,0.00,,,0.00,meteohub,2013-04-02 09:57:00,
2013-04-02 06:02:00,62.2,61.7,30.02,West,270,0.0,0.0,98,0.00,,,0.00,meteohub,2013-04-02 10:02:00,
2013-04-02 06:08:00,62.2,61.7,30.02,West,270,0.0,0.0,98,0.00,,,0.00,meteohub,2013-04-02 10:08:00,
2013-04-02 06:13:00,62.2,61.7,30.02,West,270,0.0,0.0,98,0.00,,,0.00,meteohub,2013-04-02 10:13:00,
2013-04-02 06:18:00,62.2,61.7,30.02,West,270,0.0,0.0,98,0.00,,,0.00,meteohub,2013-04-02 10:18:00,
2013-04-02 06:23:00,62.2,61.7,30.02,West,270,0.0,0.0,98,0.00,,,0.00,meteohub,2013-04-02 10:23:00,
2013-04-02 06:28:00,62.2,61.7,30.03,West,270,0.0,0.0,98,0.00,,,0.00,meteohub,2013-04-02 10:28:00,
2013-04-02 06:33:00,62.1,61.5,30.03,West,270,0.0,0.0,98,0.00,,,0.00,meteohub,2013-04-02 10:33:00,
2013-04-02 06:38:00,62.1,61.5,30.03,West,270,0.0,0.0,98,0.00,,,0.00,meteohub,2013-04-02 10:38:00,
2013-04-02 06:43:00,62.1,61.5,30.03,West,270,0.0,0.0,98,0.00,,,0.00,meteohub,2013-04-02 10:43:00,
2013-04-02 06:48:00,61.9,61.3,30.03,North,0,0.0,0.0,98,0.00,,,0.00,meteohub,2013-04-02 10:48:00,
2013-04-02 06:53:00,61.7,61.2,30.03,North,0,0.0,0.0,98,0.00,,,0.00,meteohub,2013-04-02 10:53:00,
2013-04-02 06:59:00,61.5,61.0,30.04,North,0,0.0,0.0,98,0.00,,,0.00,meteohub,2013-04-02 10:59:00,
2013-04-02 07:04:00,61.3,60.8,30.04,North,0,0.0,0.0,98,0.00,,,0.00,meteohub,2013-04-02 11:04:00,
2013-04-02 07:09:00,61.2,60.6,30.04,North,0,0.0,0.0,98,0.00,,,0.00,meteohub,2013-04-02 11:09:00,
2013-04-02 07:14:00,61.0,60.4,30.05,North,0,0.0,0.0,98,0.00,,,0.00,meteohub,2013-04-02 11:14:00,
2013-04-02 07:19:00,61.0,60.4,30.05,North,0,0.0,0.0,98,0.00,,,0.00,meteohub,2013-04-02 11:19:00,
2013-04-02 07:24:00,61.0,60.4,30.05,North,0,0.0,0.0,98,0.00,,,0.00,meteohub,2013-04-02 11:24:00,
2013-04-02 07:29:00,61.0,60.4,30.05,North,0,0.0,0.0,98,0.00,,,0.00,meteohub,2013-04-02 11:29:00,
2013-04-02 07:35:00,61.0,60.4,30.05,North,0,0.0,0.0,98,0.00,,,0.00,meteohub,2013-04-02 11:35:00,
2013-04-02 07:40:00,61.0,60.4,30.05,North,0,0.0,0.0,98,0.00,,,0.00,meteohub,2013-04-02 11:40:00,
2013-04-02 07:45:00,61.0,60.4,30.05,North,0,0.0,0.0,98,0.00,,,0.00,meteohub,2013-04-02 11:45:00,
2013-04-02 07:50:00,61.0,60.4,30.06,North,0,0.0,0.0,98,0.00,,,0.00,meteohub,2013-04-02 11:50:00,
2013-04-02 07:55:00,61.2,60.6,30.06,North,0,0.0,0.0,98,0.00,,,0.00,meteohub,2013-04-02 11:55:00,
2013-04-02 08:00:00,61.3,60.8,30.06,West,270,0.0,0.0,98,0.00,,,0.00,meteohub,2013-04-02 12:00:00,
2013-04-02 08:05:00,61.7,61.2,30.06,West,270,0.0,0.0,98,0.00,,,0.00,meteohub,2013-04-02 12:05:00,
2013-04-02 08:10:00,61.9,61.3,30.07,West,270,0.0,0.0,98,0.00,,,0.00,meteohub,2013-04-02 12:10:00,
2013-04-02 08:15:00,62.1,61.5,30.07,West,270,1.0,0.0,98,0.00,,,0.00,meteohub,2013-04-02 12:15:00,
2013-04-02 08:21:00,62.2,61.7,30.08,NW,315,1.0,1.0,98,0.00,,,0.00,meteohub,2013-04-02 12:21:00,
2013-04-02 08:26:00,62.6,61.7,30.08,SW,225,1.0,2.0,97,0.00,,,0.00,meteohub,2013-04-02 12:26:00,
2013-04-02 08:31:00,62.8,61.9,30.07,West,270,2.0,3.0,97,0.00,,,0.00,meteohub,2013-04-02 12:31:00,
2013-04-02 08:36:00,63.0,62.1,30.07,SW,225,1.0,3.0,97,0.00,,,0.00,meteohub,2013-04-02 12:36:00,
2013-04-02 08:41:00,63.3,62.4,30.08,NW,315,2.0,3.0,97,0.00,,,0.00,meteohub,2013-04-02 12:41:00,
2013-04-02 08:46:00,63.5,62.6,30.08,North,0,0.0,2.0,97,0.00,,,0.00,meteohub,2013-04-02 12:46:00,
2013-04-02 08:52:00,63.7,62.8,30.08,WSW,248,2.0,2.0,97,0.00,,,0.00,meteohub,2013-04-02 12:52:00,
2013-04-02 08:57:00,64.0,63.1,30.07,North,0,0.0,2.0,97,0.00,,,0.00,meteohub,2013-04-02 12:57:00,
2013-04-02 09:02:00,64.4,64.0,30.07,North,0,2.0,2.0,99,0.00,,,0.00,meteohub,2013-04-02 13:02:00,
2013-04-02 09:07:00,64.8,64.4,30.08,NNW,338,3.0,4.0,99,0.00,,,0.00,meteohub,2013-04-02 13:07:00,
2013-04-02 09:12:00,65.1,64.8,30.08,NW,315,1.0,4.0,99,0.00,,,0.00,meteohub,2013-04-02 13:12:00,
2013-04-02 09:17:00,65.7,65.3,30.07,East,90,2.0,4.0,99,0.00,,,0.00,meteohub,2013-04-02 13:17:00,
2013-04-02 09:22:00,66.2,65.3,30.08,North,0,1.0,3.0,97,0.00,,,0.00,meteohub,2013-04-02 13:22:00,
2013-04-02 09:27:00,66.7,65.5,30.08,SW,225,2.0,3.0,96,0.00,,,0.00,meteohub,2013-04-02 13:27:00,
2013-04-02 09:32:00,67.5,65.1,30.08,NW,315,2.0,3.0,92,0.00,,,0.00,meteohub,2013-04-02 13:32:00,
2013-04-02 09:37:00,68.2,64.2,30.09,NE,45,3.0,3.0,87,0.00,,,0.00,meteohub,2013-04-02 13:37:00,
2013-04-02 09:42:00,68.7,63.3,30.09,North,0,1.0,3.0,83,0.00,,,0.00,meteohub,2013-04-02 13:42:00,
2013-04-02 09:47:00,69.6,63.9,30.09,East,90,4.0,4.0,82,0.00,,,0.00,meteohub,2013-04-02 13:47:00,
2013-04-02 09:52:00,70.3,63.1,30.09,SW,225,1.0,4.0,78,0.00,,,0.00,meteohub,2013-04-02 13:52:00,
2013-04-02 09:57:00,71.4,64.2,30.09,North,0,3.0,4.0,78,0.00,,,0.00,meteohub,2013-04-02 13:57:00,
2013-04-02 10:02:00,72.0,63.7,30.09,North,0,2.0,4.0,75,0.00,,,0.00,meteohub,2013-04-02 14:02:00,
2013-04-02 10:08:00,72.5,63.7,30.09,NE,45,4.0,4.0,74,0.00,,,0.00,meteohub,2013-04-02 14:08:00,
2013-04-02 10:13:00,72.5,63.3,30.09,West,270,0.0,4.0,73,0.00,,,0.00,meteohub,2013-04-02 14:13:00,
2013-04-02 10:18:00,73.2,64.0,30.09,North,0,1.0,4.0,73,0.00,,,0.00,meteohub,2013-04-02 14:18:00,
2013-04-02 10:24:00,73.8,64.2,30.09,North,0,4.0,4.0,72,0.00,,,0.00,meteohub,2013-04-02 14:24:00,
2013-04-02 10:29:00,74.3,63.5,30.09,NE,45,2.0,3.0,69,0.00,,,0.00,meteohub,2013-04-02 14:29:00,
2013-04-02 10:34:00,74.5,63.1,30.09,NE,45,2.0,4.0,68,0.00,,,0.00,meteohub,2013-04-02 14:34:00,
2013-04-02 10:39:00,75.2,63.1,30.10,NE,45,2.0,4.0,66,0.00,,,0.00,meteohub,2013-04-02 14:39:00,
2013-04-02 10:44:00,75.7,63.1,30.09,NE,45,2.0,3.0,65,0.00,,,0.00,meteohub,2013-04-02 14:44:00,
2013-04-02 10:49:00,76.3,62.2,30.09,SE,135,3.0,4.0,62,0.00,,,0.00,meteohub,2013-04-02 14:49:00,
2013-04-02 10:54:00,77.0,62.6,30.09,North,0,2.0,4.0,61,0.00,,,0.00,meteohub,2013-04-02 14:54:00,
2013-04-02 11:00:00,77.4,61.3,30.10,East,90,2.0,4.0,58,0.00,,,0.00,meteohub,2013-04-02 15:00:00,
2013-04-02 11:05:00,77.7,61.3,30.09,North,0,3.0,4.0,57,0.00,,,0.00,meteohub,2013-04-02 15:05:00,
2013-04-02 11:10:00,78.1,60.6,30.09,West,270,4.0,4.0,55,0.00,,,0.00,meteohub,2013-04-02 15:10:00,
2013-04-02 11:15:00,78.4,60.4,30.10,North,0,2.0,4.0,54,0.00,,,0.00,meteohub,2013-04-02 15:15:00,
2013-04-02 11:20:00,79.0,59.4,30.10,North,0,4.0,4.0,51,0.00,,,0.00,meteohub,2013-04-02 15:20:00,
2013-04-02 11:25:00,79.5,60.4,30.10,North,0,2.0,4.0,52,0.00,,,0.00,meteohub,2013-04-02 15:25:00,
2013-04-02 11:30:00,79.9,59.5,30.10,SW,225,3.0,4.0,50,0.00,,,0.00,meteohub,2013-04-02 15:30:00,
2013-04-02 11:36:00,80.1,58.1,30.10,SE,135,4.0,4.0,47,0.00,,,0.00,meteohub,2013-04-02 15:36:00,
2013-04-02 11:41:00,79.7,58.8,30.10,NE,45,3.0,4.0,49,0.00,,,0.00,meteohub,2013-04-02 15:41:00,
2013-04-02 11:46:00,80.1,58.1,30.10,NW,315,4.0,4.0,47,0.00,,,0.00,meteohub,2013-04-02 15:46:00,
2013-04-02 11:51:00,80.2,58.1,30.10,SE,135,5.0,5.0,47,0.00,,,0.00,meteohub,2013-04-02 15:51:00,
2013-04-02 11:57:00,80.6,57.4,30.10,NE,45,2.0,5.0,45,0.00,,,0.00,meteohub,2013-04-02 15:57:00,
2013-04-02 12:02:00,81.5,59.4,30.09,NE,45,2.0,5.0,47,0.00,,,0.00,meteohub,2013-04-02 16:02:00,
2013-04-02 12:07:00,82.4,60.1,30.10,North,0,2.0,5.0,47,0.00,,,0.00,meteohub,2013-04-02 16:07:00,
2013-04-02 12:12:00,82.9,60.1,30.10,SSE,158,2.0,3.0,46,0.00,,,0.00,meteohub,2013-04-02 16:12:00,
2013-04-02 12:18:00,82.9,60.1,30.10,North,0,4.0,4.0,46,0.00,,,0.00,meteohub,2013-04-02 16:18:00,
2013-04-02 12:24:00,83.3,59.7,30.09,NE,45,2.0,4.0,45,0.00,,,0.00,meteohub,2013-04-02 16:24:00,
2013-04-02 12:29:00,82.9,59.4,30.09,SE,135,2.0,4.0,45,0.00,,,0.00,meteohub,2013-04-02 16:29:00,
2013-04-02 12:34:00,83.1,59.5,30.09,NE,45,2.0,4.0,45,0.00,,,0.00,meteohub,2013-04-02 16:34:00,
2013-04-02 12:40:00,84.2,58.6,30.09,NE,45,3.0,5.0,42,0.00,,,0.00,meteohub,2013-04-02 16:40:00,
2013-04-02 12:46:00,83.8,59.5,30.08,East,90,5.0,5.0,44,0.00,,,0.00,meteohub,2013-04-02 16:46:00,
2013-04-02 12:51:00,83.5,58.6,30.08,North,0,2.0,5.0,43,0.00,,,0.00,meteohub,2013-04-02 16:51:00,
2013-04-02 12:56:00,83.8,59.0,30.09,NW,315,3.0,57.0,43,0.00,,,0.00,meteohub,2013-04-02 16:56:00,
2013-04-02 13:02:00,84.7,57.7,30.08,NE,45,4.0,57.0,40,0.00,,,0.00,meteohub,2013-04-02 17:02:00,
2013-04-02 13:07:00,84.7,57.0,30.08,NE,45,2.0,57.0,39,0.00,,,0.00,meteohub,2013-04-02 17:07:00,
2013-04-02 13:12:00,85.3,57.6,30.08,SE,135,2.0,4.0,39,0.00,,,0.00,meteohub,2013-04-02 17:12:00,
2013-04-02 13:17:00,85.8,57.9,30.08,ESE,113,3.0,4.0,39,0.00,,,0.00,meteohub,2013-04-02 17:17:00,
2013-04-02 13:23:00,85.8,56.5,30.07,NW,315,3.0,4.0,37,0.00,,,0.00,meteohub,2013-04-02 17:23:00,
2013-04-02 13:28:00,85.8,55.8,30.07,North,0,2.0,6.0,36,0.00,,,0.00,meteohub,2013-04-02 17:28:00,
2013-04-02 13:33:00,85.8,55.8,30.07,East,90,3.0,6.0,36,0.00,,,0.00,meteohub,2013-04-02 17:33:00,
2013-04-02 13:38:00,85.1,54.3,30.07,NNW,338,3.0,6.0,35,0.00,,,0.00,meteohub,2013-04-02 17:38:00,
2013-04-02 13:43:00,85.3,55.2,30.07,North,0,4.0,4.0,36,0.00,,,0.00,meteohub,2013-04-02 17:43:00,
2013-04-02 13:48:00,85.8,55.0,30.06,East,90,2.0,4.0,35,0.00,,,0.00,meteohub,2013-04-02 17:48:00,
2013-04-02 13:54:00,85.8,55.8,30.06,SE,135,2.0,4.0,36,0.00,,,0.00,meteohub,2013-04-02 17:54:00,
2013-04-02 13:59:00,86.4,54.7,30.06,SE,135,4.0,4.0,34,0.00,,,0.00,meteohub,2013-04-02 17:59:00,
2013-04-02 14:05:00,86.7,54.1,30.06,NE,45,2.0,4.0,33,0.00,,,0.00,meteohub,2013-04-02 18:05:00,
2013-04-02 14:10:00,86.5,54.9,30.06,SW,225,1.0,4.0,34,0.00,,,0.00,meteohub,2013-04-02 18:10:00,
2013-04-02 14:15:00,86.9,54.3,30.06,WNW,293,2.0,4.0,33,0.00,,,0.00,meteohub,2013-04-02 18:15:00,
2013-04-02 14:20:00,86.5,54.0,30.06,West,270,4.0,6.0,33,0.00,,,0.00,meteohub,2013-04-02 18:20:00,
2013-04-02 14:25:00,86.2,53.8,30.06,East,90,3.0,6.0,33,0.00,,,0.00,meteohub,2013-04-02 18:25:00,
2013-04-02 14:30:00,86.2,54.5,30.05,South,180,4.0,4.0,34,0.00,,,0.00,meteohub,2013-04-02 18:30:00,
2013-04-02 14:35:00,86.5,54.0,30.05,East,90,2.0,4.0,33,0.00,,,0.00,meteohub,2013-04-02 18:35:00,
2013-04-02 14:41:00,86.9,54.3,30.04,East,90,2.0,4.0,33,0.00,,,0.00,meteohub,2013-04-02 18:41:00,
2013-04-02 14:46:00,87.3,54.7,30.04,NW,315,2.0,6.0,33,0.00,,,0.00,meteohub,2013-04-02 18:46:00,
2013-04-02 14:51:00,87.6,54.1,30.04,South,180,3.0,6.0,32,0.00,,,0.00,meteohub,2013-04-02 18:51:00,
2013-04-02 14:57:00,87.1,52.7,30.04,SE,135,2.0,6.0,31,0.00,,,0.00,meteohub,2013-04-02 18:57:00,
2013-04-02 15:02:00,86.9,54.3,30.04,East,90,3.0,6.0,33,0.00,,,0.00,meteohub,2013-04-02 19:02:00,
2013-04-02 15:07:00,87.1,55.2,30.04,East,90,2.0,4.0,34,0.00,,,0.00,meteohub,2013-04-02 19:07:00,
2013-04-02 15:13:00,87.1,53.6,30.04,SE,135,4.0,4.0,32,0.00,,,0.00,meteohub,2013-04-02 19:13:00,
2013-04-02 15:18:00,86.5,54.0,30.04,NE,45,2.0,5.0,33,0.00,,,0.00,meteohub,2013-04-02 19:18:00,
2013-04-02 15:23:00,86.9,53.4,30.04,SE,135,3.0,5.0,32,0.00,,,0.00,meteohub,2013-04-02 19:23:00,
2013-04-02 15:28:00,85.8,54.1,30.03,East,90,2.0,4.0,34,0.00,,,0.00,meteohub,2013-04-02 19:28:00,
2013-04-02 15:33:00,85.8,54.1,30.04,East,90,2.0,3.0,34,0.00,,,0.00,meteohub,2013-04-02 19:33:00,
2013-04-02 15:38:00,86.2,53.8,30.03,NE,45,3.0,4.0,33,0.00,,,0.00,meteohub,2013-04-02 19:38:00,
2013-04-02 15:44:00,86.7,54.1,30.03,East,90,3.0,4.0,33,0.00,,,0.00,meteohub,2013-04-02 19:44:00,
2013-04-02 15:50:00,87.3,53.8,30.03,SE,135,2.0,4.0,32,0.00,,,0.00,meteohub,2013-04-02 19:50:00,
2013-04-02 15:55:00,86.7,52.5,30.03,SW,225,3.0,5.0,31,0.00,,,0.00,meteohub,2013-04-02 19:55:00,
2013-04-02 16:00:00,86.2,52.9,30.03,NE,45,4.0,5.0,32,0.00,,,0.00,meteohub,2013-04-02 20:00:00,
2013-04-02 16:05:00,85.8,54.1,30.03,East,90,2.0,4.0,34,0.00,,,0.00,meteohub,2013-04-02 20:05:00,
2013-04-02 16:11:00,85.3,53.8,30.03,North,0,3.0,4.0,34,0.00,,,0.00,meteohub,2013-04-02 20:11:00,
2013-04-02 16:16:00,85.1,53.6,30.02,NE,45,2.0,4.0,34,0.00,,,0.00,meteohub,2013-04-02 20:16:00,
2013-04-02 16:21:00,85.1,53.6,30.02,South,180,4.0,4.0,34,0.00,,,0.00,meteohub,2013-04-02 20:21:00,
2013-04-02 16:26:00,84.6,54.0,30.02,East,90,0.0,5.0,35,0.00,,,0.00,meteohub,2013-04-02 20:26:00,
2013-04-02 16:31:00,84.7,54.1,30.03,East,90,3.0,5.0,35,0.00,,,0.00,meteohub,2013-04-02 20:31:00,
2013-04-02 16:37:00,84.9,53.4,30.03,SE,135,3.0,5.0,34,0.00,,,0.00,meteohub,2013-04-02 20:37:00,
2013-04-02 16:42:00,84.2,52.7,30.03,NE,45,3.0,4.0,34,0.00,,,0.00,meteohub,2013-04-02 20:42:00,
2013-04-02 16:47:00,84.0,54.1,30.03,East,90,4.0,4.0,36,0.00,,,0.00,meteohub,2013-04-02 20:47:00,
2013-04-02 16:52:00,84.2,53.6,30.03,North,0,4.0,4.0,35,0.00,,,0.00,meteohub,2013-04-02 20:52:00,
2013-04-02 16:57:00,83.8,54.0,30.03,SE,135,4.0,5.0,36,0.00,,,0.00,meteohub,2013-04-02 20:57:00,
2013-04-02 17:02:00,83.1,53.4,30.03,NNW,338,4.0,6.0,36,0.00,,,0.00,meteohub,2013-04-02 21:02:00,
2013-04-02 17:07:00,82.9,53.2,30.03,NE,45,2.0,6.0,36,0.00,,,0.00,meteohub,2013-04-02 21:07:00,
2013-04-02 17:12:00,82.9,53.2,30.03,NE,45,4.0,6.0,36,0.00,,,0.00,meteohub,2013-04-02 21:12:00,
2013-04-02 17:17:00,82.9,53.2,30.03,North,0,3.0,6.0,36,0.00,,,0.00,meteohub,2013-04-02 21:17:00,
2013-04-02 17:22:00,82.9,53.2,30.03,NE,45,4.0,6.0,36,0.00,,,0.00,meteohub,2013-04-02 21:22:00,
2013-04-02 17:27:00,83.1,52.7,30.03,East,90,2.0,4.0,35,0.00,,,0.00,meteohub,2013-04-02 21:27:00,
2013-04-02 17:33:00,82.9,53.2,30.03,North,0,2.0,5.0,36,0.00,,,0.00,meteohub,2013-04-02 21:33:00,
2013-04-02 17:39:00,82.8,53.1,30.04,East,90,2.0,5.0,36,0.00,,,0.00,meteohub,2013-04-02 21:39:00,
2013-04-02 17:44:00,82.6,52.9,30.04,SE,135,2.0,5.0,36,0.00,,,0.00,meteohub,2013-04-02 21:44:00,
2013-04-02 17:49:00,82.8,53.1,30.04,NE,45,4.0,4.0,36,0.00,,,0.00,meteohub,2013-04-02 21:49:00,
2013-04-02 17:54:00,82.9,52.5,30.04,West,270,4.0,4.0,35,0.00,,,0.00,meteohub,2013-04-02 21:54:00,
2013-04-02 18:00:00,82.4,52.0,30.04,East,90,3.0,4.0,35,0.00,,,0.00,meteohub,2013-04-02 22:00:00,
2013-04-02 18:05:00,81.9,49.1,30.04,SW,225,2.0,5.0,32,0.00,,,0.00,meteohub,2013-04-02 22:05:00,
2013-04-02 18:10:00,81.5,48.7,30.04,East,90,3.0,5.0,32,0.00,,,0.00,meteohub,2013-04-02 22:10:00,
2013-04-02 18:15:00,81.1,48.6,30.04,SE,135,2.0,5.0,32,0.00,,,0.00,meteohub,2013-04-02 22:15:00,
2013-04-02 18:21:00,81.1,49.3,30.04,SW,225,3.0,5.0,33,0.00,,,0.00,meteohub,2013-04-02 22:21:00,
2013-04-02 18:27:00,81.3,48.6,30.04,East,90,2.0,5.0,32,0.00,,,0.00,meteohub,2013-04-02 22:27:00,
2013-04-02 18:32:00,81.5,49.6,30.04,SE,135,4.0,5.0,33,0.00,,,0.00,meteohub,2013-04-02 22:32:00,
2013-04-02 18:37:00,81.1,48.6,30.04,South,180,2.0,4.0,32,0.00,,,0.00,meteohub,2013-04-02 22:37:00,
2013-04-02 18:42:00,81.0,48.4,30.04,NE,45,4.0,4.0,32,0.00,,,0.00,meteohub,2013-04-02 22:42:00,
2013-04-02 18:47:00,80.2,48.6,30.04,NE,45,2.0,4.0,33,0.00,,,0.00,meteohub,2013-04-02 22:47:00,
2013-04-02 18:52:00,79.5,48.7,30.04,NE,45,2.0,4.0,34,0.00,,,0.00,meteohub,2013-04-02 22:52:00,
2013-04-02 18:58:00,79.0,48.2,30.04,SE,135,2.0,4.0,34,0.00,,,0.00,meteohub,2013-04-02 22:58:00,
2013-04-02 19:03:00,78.3,49.1,30.04,North,0,2.0,5.0,36,0.00,,,0.00,meteohub,2013-04-02 23:03:00,
2013-04-02 19:08:00,77.7,48.6,30.04,East,90,4.0,5.0,36,0.00,,,0.00,meteohub,2013-04-02 23:08:00,
2013-04-02 19:14:00,77.2,48.2,30.05,NE,45,2.0,5.0,36,0.00,,,0.00,meteohub,2013-04-02 23:14:00,
2013-04-02 19:19:00,76.8,49.3,30.05,East,90,3.0,4.0,38,0.00,,,0.00,meteohub,2013-04-02 23:19:00,
2013-04-02 19:24:00,76.3,48.7,30.04,East,90,2.0,4.0,38,0.00,,,0.00,meteohub,2013-04-02 23:24:00,
2013-04-02 19:29:00,75.9,49.1,30.05,NE,45,2.0,4.0,39,0.00,,,0.00,meteohub,2013-04-02 23:29:00,
2013-04-02 19:35:00,75.4,48.7,30.04,East,90,4.0,4.0,39,0.00,,,0.00,meteohub,2013-04-02 23:35:00,
2013-04-02 19:40:00,75.0,49.1,30.04,East,90,2.0,4.0,40,0.00,,,0.00,meteohub,2013-04-02 23:40:00,
2013-04-02 19:45:00,74.5,49.3,30.05,East,90,3.0,4.0,41,0.00,,,0.00,meteohub,2013-04-02 23:45:00,
2013-04-02 19:51:00,74.1,48.9,30.05,NE,45,2.0,4.0,41,0.00,,,0.00,meteohub,2013-04-02 23:51:00,
2013-04-02 19:57:00,73.8,49.3,30.05,West,270,2.0,3.0,42,0.00,,,0.00,meteohub,2013-04-02 23:57:00,
2013-04-02 20:02:00,73.4,48.9,30.05,NE,45,2.0,3.0,42,0.00,,,0.00,meteohub,2013-04-03 00:02:00,
2013-04-02 20:07:00,73.2,48.7,30.05,NE,45,2.0,3.0,42,0.00,,,0.00,meteohub,2013-04-03 00:07:00,
2013-04-02 20:12:00,72.9,48.4,30.05,East,90,2.0,3.0,42,0.00,,,0.00,meteohub,2013-04-03 00:12:00,
2013-04-02 20:17:00,72.5,48.7,30.05,North,0,2.0,3.0,43,0.00,,,0.00,meteohub,2013-04-03 00:17:00,
2013-04-02 20:22:00,72.1,48.4,30.05,East,90,2.0,2.0,43,0.00,,,0.00,meteohub,2013-04-03 00:22:00,
2013-04-02 20:28:00,72.0,48.9,30.06,East,90,2.0,2.0,44,0.00,,,0.00,meteohub,2013-04-03 00:28:00,
2013-04-02 20:33:00,71.8,48.7,30.06,East,90,2.0,3.0,44,0.00,,,0.00,meteohub,2013-04-03 00:33:00,
2013-04-02 20:39:00,71.4,49.6,30.06,East,90,1.0,3.0,46,0.00,,,0.00,meteohub,2013-04-03 00:39:00,
2013-04-02 20:44:00,71.1,49.8,30.06,East,90,0.0,3.0,47,0.00,,,0.00,meteohub,2013-04-03 00:44:00,
2013-04-02 20:50:00,70.9,50.2,30.06,East,90,2.0,3.0,48,0.00,,,0.00,meteohub,2013-04-03 00:50:00,
2013-04-02 20:55:00,70.7,51.1,30.06,NE,45,1.0,2.0,50,0.00,,,0.00,meteohub,2013-04-03 00:55:00,
2013-04-02 21:00:00,70.3,51.4,30.07,East,90,2.0,2.0,51,0.00,,,0.00,meteohub,2013-04-03 01:00:00,
2013-04-02 21:05:00,70.2,51.8,30.08,East,90,2.0,2.0,52,0.00,,,0.00,meteohub,2013-04-03 01:05:00,
2013-04-02 21:11:00,70.0,52.0,30.08,East,90,2.0,2.0,53,0.00,,,0.00,meteohub,2013-04-03 01:11:00,
2013-04-02 21:16:00,69.8,52.3,30.08,North,0,2.0,2.0,54,0.00,,,0.00,meteohub,2013-04-03 01:16:00,
2013-04-02 21:21:00,69.6,53.2,30.07,East,90,2.0,2.0,56,0.00,,,0.00,meteohub,2013-04-03 01:21:00,
2013-04-02 21:22:00,69.4,53.1,30.07,ESE,113,2.0,2.0,56,0.00,,,0.00,meteohub,2013-04-03 01:22:00,
2013-04-02 21:27:00,69.4,54.0,30.08,East,90,2.0,2.0,58,0.00,,,0.00,meteohub,2013-04-03 01:27:00,
2013-04-02 21:37:00,69.1,55.0,30.08,NE,45,2.0,2.0,61,0.00,,,0.00,meteohub,2013-04-03 01:37:00,
2013-04-02 21:42:00,68.9,55.8,30.08,ENE,68,2.0,3.0,63,0.00,,,0.00,meteohub,2013-04-03 01:42:00,
2013-04-02 21:48:00,68.7,55.6,30.08,NE,45,2.0,3.0,63,0.00,,,0.00,meteohub,2013-04-03 01:48:00,
2013-04-02 21:53:00,68.5,55.9,30.08,East,90,2.0,2.0,64,0.00,,,0.00,meteohub,2013-04-03 01:53:00,
2013-04-02 21:58:00,68.4,55.8,30.09,NE,45,2.0,2.0,64,0.00,,,0.00,meteohub,2013-04-03 01:58:00,
2013-04-02 22:03:00,68.2,55.9,30.09,East,90,2.0,2.0,65,0.00,,,0.00,meteohub,2013-04-03 02:03:00,
2013-04-02 22:09:00,68.2,56.8,30.09,East,90,2.0,2.0,67,0.00,,,0.00,meteohub,2013-04-03 02:09:00,
2013-04-02 22:14:00,68.0,56.7,30.09,NE,45,1.0,3.0,67,0.00,,,0.00,meteohub,2013-04-03 02:14:00,
2013-04-02 22:19:00,67.8,57.2,30.09,East,90,1.0,3.0,69,0.00,,,0.00,meteohub,2013-04-03 02:19:00,
2013-04-02 22:24:00,67.6,57.6,30.09,SE,135,1.0,3.0,70,0.00,,,0.00,meteohub,2013-04-03 02:24:00,
2013-04-02 22:29:00,67.5,57.7,30.09,SE,135,2.0,2.0,71,0.00,,,0.00,meteohub,2013-04-03 02:29:00,
2013-04-02 22:35:00,67.3,57.9,30.09,East,90,0.0,2.0,72,0.00,,,0.00,meteohub,2013-04-03 02:35:00,
2013-04-02 22:40:00,67.1,58.1,30.09,East,90,2.0,2.0,73,0.00,,,0.00,meteohub,2013-04-03 02:40:00,
2013-04-02 22:45:00,66.9,58.3,30.09,East,90,2.0,4.0,74,0.00,,,0.00,meteohub,2013-04-03 02:45:00,
2013-04-02 22:50:00,66.7,58.1,30.08,SE,135,2.0,4.0,74,0.00,,,0.00,meteohub,2013-04-03 02:50:00,
2013-04-02 22:55:00,66.6,58.5,30.09,NE,45,2.0,4.0,75,0.00,,,0.00,meteohub,2013-04-03 02:55:00,
2013-04-02 23:01:00,66.6,58.5,30.09,East,90,0.0,2.0,75,0.00,,,0.00,meteohub,2013-04-03 03:01:00,
2013-04-02 23:06:00,66.4,58.6,30.09,SE,135,2.0,6.0,76,0.00,,,0.00,meteohub,2013-04-03 03:06:00,
2013-04-02 23:11:00,66.4,58.6,30.09,East,90,0.0,6.0,76,0.00,,,0.00,meteohub,2013-04-03 03:11:00,
2013-04-02 23:16:00,66.2,58.8,30.09,East,90,2.0,6.0,77,0.00,,,0.00,meteohub,2013-04-03 03:16:00,
2013-04-02 23:22:00,66.0,59.0,30.10,East,90,1.0,3.0,78,0.00,,,0.00,meteohub,2013-04-03 03:22:00,
2013-04-02 23:27:00,66.0,59.0,30.10,East,90,1.0,4.0,78,0.00,,,0.00,meteohub,2013-04-03 03:27:00,
2013-04-02 23:32:00,65.8,59.2,30.09,East,90,1.0,4.0,79,0.00,,,0.00,meteohub,2013-04-03 03:32:00,
2013-04-02 23:37:00,65.8,59.2,30.09,East,90,0.0,5.0,79,0.00,,,0.00,meteohub,2013-04-03 03:37:00,
2013-04-02 23:42:00,65.7,59.0,30.09,East,90,0.0,5.0,79,0.00,,,0.00,meteohub,2013-04-03 03:42:00,
2013-04-02 23:48:00,65.5,59.2,30.10,East,90,0.0,5.0,80,0.00,,,0.00,meteohub,2013-04-03 03:48:00,
2013-04-02 23:53:00,65.3,59.0,30.10,East,90,0.0,0.0,80,0.00,,,0.00,meteohub,2013-04-03 03:53:00,
2013-04-02 23:58:00,64.9,58.6,30.09,East,90,0.0,0.0,80,0.00,,,0.00,meteohub,2013-04-03 03:58:00,